Tracking 29892 objects as of 21-Nov-2024
HD Live streaming from Space Station
objects crossing your sky now

ARIANE 5 R/B

Track ARIANE 5 R/B now!
10-day predictions


NORAD ID: 28499
Int'l Code: 2004-049H
Perigee: 563.7 km
Apogee: 686.6 km
Inclination: 98.2 °
Period: 97.1 minutes
Semi major axis: 6996 km
RCS: 17.277 m2 (large)
Launch date: December 18, 2004
Source: France (FR)
Launch site: FRENCH GUIANA (FRGUI)

Note: This is a ROCKET BODY
Your satellite tracking list
Your tracking list is empty




NASA's NSSDC Master Catalog

Two Line Element Set (TLE):
1 28499U 04049H   24325.93115322  .00001984  00000-0  23187-3 0  9997
2 28499  98.2062 107.8502 0087874  85.9489 275.1762 14.83589100 75529
Source of the keplerian elements: AFSPC